GFSFLT2_925_temp_000.txt.gz
Temp
20 19 19 20 20 20 19 19 18 18 18 17 17 17 17 17 16 16 16 17 17 18 18 17 16 16 16 16 16 18 17 17
19 19 19 19 19 19 19 19 18 18 18 18 17 17 16 17 17 16 16 16 16 16 16 15 16 16 16 16 17 17 17 16
19 19 19 19 19 19 19 19 18 18 18 17 16 16 16 16 16 16 16 16 16 15 15 15 15 15 16 16 16 16 16 16
20 20 19 18 18 19 18 18 18 17 17 17 16 16 15 15 15 14 14 15 15 15 15 15 15 15 15 15 15 15 15 16
21 21 21 19 19 19 18 18 18 17 17 16 16 15 15 15 14 14 13 13 13 14 14 14 14 15 15 15 15 15 15 15
21 21 20 19 19 18 18 18 17 16 16 16 16 16 16 15 14 14 14 14 13 13 13 13 13 13 13 13 13 14 14 14
21 21 20 19 18 18 18 18 17 16 16 16 16 16 15 15 15 14 14 13 13 13 13 11 12 12 12 12 12 12 12 13
21 21 20 19 18 18 18 18 17 17 17 16 16 15 15 15 14 14 14 14 13 13 13 13 13 13 12 12 11 12 12 12
21 21 20 19 18 18 18 17 17 17 17 16 16 15 15 14 14 14 13 13 13 13 13 13 13 12 12 13 12 12 12 12
21 20 19 19 19 18 17 17 17 17 17 16 16 16 15 14 14 14 14 14 13 13 13 13 13 12 12 12 12 13 13 13
20 20 19 19 18 18 17 17 17 17 16 16 16 16 15 14 14 14 14 14 13 13 13 13 13 12 12 12 12 12 12 13
20 20 19 19 18 18 17 17 17 16 16 16 16 15 15 14 14 14 14 14 13 13 13 13 12 12 12 12 12 12 12 12
20 20 20 19 18 18 17 17 17 17 16 16 15 16 15 15 14 14 14 13 13 13 13 12 12 12 11 12 12 12 12 12
20 20 20 19 18 18 18 18 17 17 17 16 16 15 15 15 15 14 14 13 13 13 12 12 12 12 11 9 7 10 11 11
21 21 20 20 19 18 18 17 16 16 16 16 16 16 15 15 15 14 14 13 13 13 12 11 11 11 10 9 6 6 7 10
21 21 20 19 19 18 18 17 16 17 17 17 16 16 15 15 14 14 14 13 12 11 11 10 10 9 9 9 9 8 5 7
20 20 20 19 19 18 17 17 17 17 17 16 16 16 15 15 14 13 12 12 11 10 10 9 9 8 8 8 8 8 7 6
19 19 18 18 18 18 17 17 17 16 16 16 15 15 14 14 12 12 11 10 10 10 9 8 8 8 8 8 7 6 6 5
17 17 17 17 17 17 17 17 16 15 15 14 13 12 11 10 10 9 8 7 7 6 7 7 7 7 8 7 7 6 6 6
15 16 15 16 16 16 16 16 15 15 14 12 10 10 9 8 7 6 5 5 5 5 5 5 5 7 7 7 6 6 6 6

GFSFLT2_925_temp_003.txt.gz
Temp
20 20 20 20 20 20 19 19 19 18 18 18 17 17 17 17 16 16 16 17 17 16 16 15 15 15 16 16 16 16 17 17
20 19 19 19 19 19 18 18 18 18 18 17 17 17 16 16 16 15 15 16 16 15 15 14 14 15 16 16 15 15 15 16
19 19 19 19 19 18 18 18 18 18 17 17 16 16 16 15 15 15 15 15 15 15 15 15 15 15 15 15 15 15 15 16
19 19 19 18 18 18 18 18 18 17 17 17 16 16 16 16 16 16 16 15 15 15 15 15 15 15 15 15 15 15 15 14
20 20 19 18 18 18 18 18 18 17 17 17 16 16 16 16 15 15 15 15 15 15 14 14 14 14 14 14 14 15 15 15
20 19 18 18 18 18 18 18 17 17 17 16 16 16 16 16 15 14 14 14 14 14 14 14 13 13 13 13 13 13 13 14
20 20 19 19 19 18 18 17 17 17 16 16 16 16 16 15 14 14 13 13 13 13 13 13 13 13 13 13 13 13 12 13
21 20 19 19 18 18 18 17 17 16 16 16 16 16 16 15 15 14 13 13 13 13 13 13 13 13 13 13 12 12 12 12
21 20 19 19 19 18 18 17 17 17 16 16 16 16 15 15 15 14 14 13 13 13 13 13 13 13 13 13 13 13 12 12
20 19 20 19 18 18 18 17 17 17 17 16 16 16 15 15 14 14 14 14 14 13 13 13 13 13 13 12 12 12 12 12
20 20 20 19 18 18 18 17 17 17 16 16 16 15 15 15 15 14 14 14 14 14 13 13 13 13 12 12 12 12 12 12
21 20 20 19 19 18 18 18 17 17 17 17 16 15 15 15 15 14 14 14 14 13 13 13 13 12 12 12 12 12 12 12
21 20 20 19 19 18 18 18 18 17 17 17 17 17 16 15 15 15 14 14 14 13 13 12 12 12 11 11 11 12 11 11
20 21 20 20 20 20 19 18 18 18 17 17 17 16 16 15 15 15 15 14 13 13 13 12 12 11 10 8 6 9 10 10
20 21 20 20 19 19 18 18 17 17 18 17 17 16 16 15 15 15 15 14 14 13 13 12 11 10 10 9 6 5 5 9
20 19 19 18 17 17 17 16 15 16 17 17 17 17 16 16 15 15 14 14 13 13 12 11 11 9 9 8 8 8 4 4
18 18 18 17 17 17 16 16 16 16 15 15 15 15 14 15 15 14 13 13 12 11 10 10 9 9 9 8 7 7 6 4
17 17 16 16 15 16 15 15 16 14 15 15 15 14 14 13 13 12 12 10 9 8 8 7 7 7 7 7 7 6 5 4
15 15 15 14 15 15 15 15 15 14 14 14 13 12 10 9 10 9 8 7 6 5 5 4 5 5 5 5 5 6 6 5
14 14 13 13 13 13 14 14 14 14 13 13 12 9 8 7 7 6 5 4 4 4 4 5 4 4 4 5 5 6 6 5

GFSFLT2_925_temp_006.txt.gz
Temp
20 20 20 20 20 19 19 19 19 18 18 17 17 17 17 17 16 16 16 16 16 16 16 16 15 15 15 15 15 15 15 16
20 20 19 19 19 19 19 19 18 18 17 17 17 17 17 17 17 17 16 16 16 16 15 15 15 15 15 15 15 15 15 16
19 19 19 19 19 19 19 18 18 18 17 17 17 17 17 16 16 16 16 16 16 16 15 15 15 15 15 15 14 14 15 15
19 19 19 18 18 18 18 18 18 18 17 17 17 16 16 16 16 16 16 15 15 15 15 15 15 15 15 15 15 14 14 14
20 20 19 19 18 18 18 18 18 17 17 17 16 16 16 16 16 15 15 15 14 14 14 14 14 14 14 15 15 14 14 13
20 20 20 19 18 18 18 18 17 17 17 16 16 16 16 16 16 15 15 14 14 14 13 13 13 13 14 14 14 14 14 13
20 20 19 19 18 18 18 17 17 17 17 16 16 16 16 16 16 15 14 14 14 13 13 13 13 13 13 13 13 13 13 13
20 20 19 18 18 18 18 17 17 17 16 16 16 16 16 15 15 15 14 14 13 13 13 14 14 13 13 13 13 13 13 13
20 19 19 19 19 18 18 18 17 17 17 16 16 16 16 16 15 15 14 13 13 13 13 13 13 13 13 13 13 13 12 12
19 20 19 19 19 18 18 18 17 17 17 17 16 16 16 16 16 15 15 14 13 13 13 13 13 13 13 13 12 12 12 12
20 20 19 19 19 18 17 17 17 17 17 17 16 16 15 15 15 15 15 14 14 13 13 13 13 13 13 12 12 12 12 12
20 20 19 19 19 19 18 18 18 18 18 18 17 16 16 15 15 15 15 14 14 13 13 13 13 13 12 12 12 12 12 12
20 20 20 20 19 19 19 19 19 18 18 18 17 17 17 15 15 14 14 14 15 14 14 13 12 12 11 11 12 12 11 11
20 20 19 19 18 17 17 17 17 17 18 18 17 17 17 16 16 15 15 14 14 14 13 13 12 12 11 8 7 9 10 10
19 18 18 17 16 16 16 16 16 16 17 17 17 17 15 14 15 15 15 14 14 14 13 13 12 11 10 10 5 5 5 9
17 16 16 16 15 15 14 14 13 15 14 14 14 15 14 14 13 13 14 13 12 13 13 12 11 9 8 8 8 8 5 5
16 16 15 15 15 15 14 13 13 13 14 13 14 14 14 14 14 12 11 11 11 10 10 9 8 8 7 7 7 6 6 4
16 16 15 15 14 14 13 12 12 12 13 12 13 13 13 12 13 11 8 8 8 8 7 7 6 5 5 5 5 5 4 4
14 14 13 13 12 12 12 12 11 11 11 11 11 11 11 10 9 7 6 5 5 5 5 4 3 3 3 3 2 2 2 2
13 12 12 12 12 12 11 10 10 10 11 11 10 10 8 6 6 5 5 5 5 4 4 3 3 2 2 0 -0 -0 1 2

GFSFLT2_925_temp_009.txt.gz
Temp
19 19 20 20 20 20 19 19 18 18 18 18 18 17 17 17 17 16 16 16 16 16 16 15 15 15 15 15 15 15 15 15
20 20 20 19 19 19 19 19 18 18 18 18 18 18 17 17 17 16 16 16 16 16 16 15 15 14 14 15 15 15 15 15
19 20 19 19 18 18 18 18 18 18 18 17 17 17 17 17 17 16 16 16 16 16 16 15 15 15 15 15 15 14 15 14
19 19 19 19 18 18 18 18 18 17 17 17 16 16 16 16 16 16 15 15 15 15 15 15 15 15 15 15 14 14 13 13
19 19 19 19 18 18 18 18 18 17 17 17 17 16 16 16 16 16 15 15 14 14 14 14 14 14 14 14 14 13 12 12
19 19 19 19 18 18 18 17 17 17 17 17 17 16 16 16 16 16 15 15 14 14 14 14 14 14 14 14 14 13 12 12
20 19 19 19 19 18 18 17 17 17 17 17 16 16 16 16 16 16 15 15 14 14 14 14 14 14 14 13 13 13 13 12
20 19 19 19 19 18 18 17 17 17 17 17 16 16 16 16 16 16 16 15 14 14 13 14 14 14 13 13 13 13 13 13
20 20 19 20 19 18 18 18 18 17 17 17 17 17 17 16 16 16 16 15 14 13 13 13 13 13 13 13 13 13 13 12
19 20 20 19 19 18 18 18 18 17 17 17 17 17 16 16 16 16 16 15 15 14 13 12 13 12 12 12 12 12 12 12
20 20 20 19 19 18 18 18 18 18 18 17 17 17 17 16 16 16 15 15 15 14 13 13 12 12 12 12 12 12 12 12
19 20 20 19 18 18 18 18 18 18 17 17 17 16 16 15 15 15 15 15 15 14 13 12 12 12 12 12 12 11 12 11
20 20 19 17 16 17 17 17 17 17 17 17 16 16 15 15 15 14 14 13 14 14 13 12 11 11 11 12 11 11 11 11
17 17 16 16 16 15 15 15 16 16 16 16 16 16 16 14 14 13 13 11 11 12 11 11 11 10 12 12 14 13 10 9
16 16 15 15 15 15 15 15 14 14 14 14 14 14 14 14 14 13 12 11 10 11 11 11 12 11 10 13 14 13 13 10
15 14 14 14 14 14 13 12 12 12 11 11 12 13 13 13 13 13 12 10 9 9 10 10 10 12 9 8 8 9 12 13
14 14 14 14 13 13 12 11 10 10 10 10 10 11 11 12 12 12 12 11 9 8 8 7 8 9 9 8 8 8 7 10
15 14 14 14 13 12 11 10 9 9 10 9 10 9 9 10 10 10 9 8 6 5 5 5 5 6 5 6 7 8 8 7
13 13 12 12 11 11 11 10 9 9 9 9 8 8 7 7 7 6 5 4 4 3 3 3 2 2 2 2 2 2 2 1
11 11 11 11 12 11 11 10 9 8 7 7 7 6 5 6 5 4 5 5 5 5 4 3 2 1 1 0 -0 -0 -0 -0

GFSFLT2_925_temp_012.txt.gz
Temp
20 20 19 19 19 19 19 18 18 18 18 18 18 17 17 17 17 16 16 15 15 15 15 15 15 15 15 15 16 16 17 18
20 20 20 19 19 19 19 18 18 18 18 17 17 17 17 16 16 16 16 16 15 15 15 15 15 15 15 15 15 16 17 18
20 20 20 19 19 19 19 18 18 18 18 18 17 18 17 17 16 16 16 16 16 15 15 15 15 15 15 15 15 17 17 18
21 20 20 19 19 19 19 18 19 18 18 17 18 17 17 16 16 16 16 16 16 16 15 15 16 17 17 16 17 16 17 17
21 20 19 19 20 20 20 19 19 19 17 17 17 17 17 17 17 17 16 16 16 16 16 16 15 15 16 16 16 15 17 17
22 20 19 18 20 20 20 19 19 19 19 17 17 18 17 17 17 17 17 17 16 16 16 15 14 14 14 15 15 15 16 16
22 20 19 19 18 19 19 18 19 18 18 18 17 17 17 17 17 17 17 16 16 16 16 16 15 15 14 14 15 15 14 15
22 20 19 19 19 18 19 18 19 18 18 18 17 16 17 17 17 17 17 17 16 16 16 15 15 15 15 14 14 14 15 14
22 20 19 19 19 19 19 19 18 18 18 17 16 16 17 16 17 17 17 17 16 15 15 15 15 15 15 15 14 14 14 14
21 20 20 19 19 19 19 19 18 18 18 17 16 16 15 16 16 17 17 16 16 16 16 16 15 15 15 15 15 15 14 14
21 20 20 20 19 18 18 17 18 18 18 18 17 16 16 15 16 16 16 16 16 16 16 16 15 16 16 15 15 15 15 15
21 20 19 18 18 17 18 18 18 17 18 17 16 16 15 15 15 15 15 15 15 15 15 15 15 15 16 16 16 15 15 14
20 19 16 17 18 18 19 18 18 18 17 15 15 15 14 14 14 15 14 15 15 14 14 15 14 15 14 15 15 15 14 14
18 18 17 17 17 17 16 16 17 16 16 15 15 14 14 14 14 14 14 14 14 14 14 14 14 14 15 15 17 17 16 14
17 17 16 15 15 17 17 17 17 17 15 15 14 13 13 13 13 13 12 13 13 14 13 14 14 14 14 14 16 16 17 17
16 16 16 15 14 15 14 15 15 14 14 13 12 12 12 12 12 11 12 12 12 12 13 12 13 13 14 14 13 14 16 16
15 16 15 14 14 13 14 14 13 13 13 12 12 13 12 12 11 10 10 10 11 10 10 10 11 11 12 12 12 12 12 12
15 15 15 14 13 12 12 12 12 12 12 12 12 11 11 11 10 9 8 8 8 8 7 7 7 7 7 8 8 7 9 9
15 15 15 14 13 13 12 12 11 11 11 11 10 10 10 10 8 8 8 7 7 6 4 3 3 2 2 1 1 1 1 1
14 15 15 14 13 13 12 11 10 10 9 9 9 9 8 7 7 7 7 7 6 6 4 3 1 1 1 0 0 0 0 0

GFSFLT2_925_temp_015.txt.gz
Temp
23 21 20 20 20 19 19 18 18 18 18 18 18 17 17 17 17 17 17 17 17 16 16 16 16 16 16 16 16 17 18 20
23 23 23 22 19 20 19 19 18 18 18 18 18 18 18 17 17 16 17 16 16 16 16 16 16 16 16 16 17 17 18 20
24 23 22 22 22 20 19 19 19 19 18 18 18 19 19 19 17 17 16 16 16 16 16 16 16 16 17 17 17 18 19 20
24 23 22 22 22 21 21 21 21 20 20 19 20 19 19 18 18 17 17 17 16 16 17 16 17 18 18 17 18 18 18 19
24 22 21 22 22 22 23 22 21 21 20 19 19 19 19 19 19 19 19 18 18 17 18 18 17 17 17 17 18 17 19 19
24 23 21 21 22 23 22 22 22 21 21 19 19 20 19 19 19 19 19 19 18 18 18 18 17 16 16 16 16 17 18 18
25 23 21 22 21 22 21 21 21 20 20 20 19 19 19 19 18 18 19 19 18 18 18 18 18 17 17 16 16 16 16 16
25 24 22 22 22 21 21 20 21 20 20 20 19 18 18 18 18 18 19 19 19 18 18 17 17 17 17 17 16 16 17 16
25 24 23 21 21 21 21 21 20 21 20 19 19 18 18 18 18 18 18 18 18 18 18 18 17 17 17 17 16 16 15 16
25 24 22 21 22 21 21 21 20 20 20 19 18 18 17 17 18 18 18 17 17 18 18 18 18 18 18 17 17 17 17 16
25 23 22 22 21 21 20 20 19 21 20 20 19 18 17 17 17 17 17 17 17 17 17 17 17 17 17 18 18 17 17 17
24 22 22 21 21 20 20 20 20 20 20 19 18 17 16 16 16 16 16 16 16 17 16 16 16 16 17 18 17 18 17 17
23 21 19 20 21 20 21 20 20 20 19 18 17 17 16 15 16 16 15 16 16 15 15 16 16 16 16 16 17 16 17 16
20 20 19 19 20 19 18 18 19 18 18 17 17 16 15 15 15 15 15 15 14 14 14 15 15 15 16 16 17 17 18 17
20 19 18 17 18 19 19 19 19 19 18 17 16 15 14 14 14 14 13 13 14 14 14 14 15 15 15 16 16 16 18 18
18 18 18 17 16 17 16 17 17 17 16 16 15 14 14 14 14 13 12 11 12 12 13 13 13 13 14 14 15 15 14 14
18 18 18 17 16 15 15 15 15 15 15 14 13 14 13 13 13 12 11 11 11 10 10 10 10 11 11 11 10 11 11 10
18 18 18 17 16 15 14 14 14 14 14 13 13 12 12 11 11 10 10 10 10 9 8 6 6 5 4 4 3 4 5 5
18 18 18 17 16 15 15 14 13 13 12 12 10 10 10 10 9 9 9 9 8 7 6 5 3 2 2 1 1 1 1 1
17 17 17 17 16 15 14 13 12 11 10 9 9 9 9 9 9 8 7 6 5 4 3 3 2 2 2 1 1 1 1 1

GFSFLT2_925_temp_021.txt.gz
Temp
21 22 21 21 20 20 19 19 19 19 19 19 18 18 18 18 18 18 18 18 18 18 17 17 18 18 18 18 18 18 18 18
22 22 21 21 21 20 20 20 20 19 19 19 19 18 18 18 18 18 18 18 17 17 17 17 17 17 17 17 18 18 18 18
22 21 21 21 21 21 20 20 20 19 19 19 18 18 18 19 18 18 18 18 17 17 18 17 17 17 17 17 17 17 17 17
22 22 22 21 21 21 21 20 20 19 19 19 19 19 19 18 18 18 18 18 18 18 18 18 17 17 17 17 17 17 17 17
22 22 22 22 21 21 21 20 20 19 19 19 19 19 19 19 18 18 18 18 18 18 18 18 18 17 17 17 17 17 17 17
23 23 22 22 22 21 20 21 20 20 19 19 19 19 19 18 18 18 18 18 18 18 18 18 18 18 17 17 17 17 16 16
23 23 23 22 21 21 21 21 21 20 20 20 19 18 18 18 18 18 18 18 18 18 18 18 17 17 17 17 17 17 17 17
22 21 21 21 21 21 21 20 21 20 20 20 19 19 18 18 18 17 18 18 18 17 17 17 17 17 17 17 17 17 17 17
22 20 18 21 21 21 21 20 21 20 20 20 20 19 18 18 17 17 17 17 17 17 17 16 16 17 17 17 17 17 17 17
22 21 19 19 20 21 21 20 20 20 20 19 19 18 17 17 17 17 16 16 16 16 16 16 16 16 16 16 16 16 17 17
21 19 19 19 20 21 20 20 20 20 20 19 18 17 17 17 16 16 15 15 15 14 14 14 14 14 14 14 15 15 15 16
20 19 19 20 20 21 20 19 19 19 18 18 18 17 17 16 15 15 14 14 14 14 14 13 13 13 13 13 14 14 15 15
20 20 20 20 20 19 19 18 19 19 18 17 17 15 15 14 14 14 13 13 13 13 12 12 12 12 11 12 12 13 13 14
19 19 19 18 18 18 17 17 17 16 16 15 14 14 13 13 13 12 12 11 11 11 11 11 11 10 10 10 9 11 12 12
18 18 18 18 17 18 17 17 17 16 15 14 13 13 12 11 11 11 10 10 10 10 10 9 8 8 8 7 6 7 6 10
18 18 18 18 17 16 15 15 14 14 13 12 12 11 11 10 10 10 9 9 9 9 8 8 8 6 7 7 5 4 6 6
18 18 17 17 17 16 15 14 13 12 11 11 10 10 10 9 8 8 8 7 7 7 7 6 6 4 3 3 4 4 4 2
18 17 17 16 15 14 14 13 12 11 10 9 9 9 8 8 7 7 7 6 6 5 5 5 4 4 3 3 3 2 3 2
17 16 16 15 14 13 12 12 11 10 9 9 9 8 7 7 7 6 6 5 5 5 4 3 3 4 4 3 3 2 1 0
17 16 16 14 14 12 11 11 10 10 9 9 8 7 6 6 6 5 5 4 4 3 3 3 3 2 2 3 3 2 3 2

GFSFLT2_925_temp_024.txt.gz
Temp
20 20 20 20 20 20 20 19 19 19 19 19 19 19 19 18 18 18 18 18 17 17 17 17 17 17 17 17 17 17 17 17
21 21 21 21 21 20 20 20 19 19 19 18 18 18 18 18 18 18 18 18 17 18 17 17 17 17 17 17 17 17 17 17
21 21 21 21 20 20 20 19 19 19 19 18 18 18 18 18 18 18 18 18 18 18 18 17 17 17 17 17 17 17 17 16
21 21 21 21 20 20 20 20 19 19 19 19 19 18 18 18 18 18 18 18 18 18 18 18 17 17 17 17 17 17 17 17
21 21 21 21 20 20 20 20 19 19 19 19 18 18 18 18 18 18 18 18 18 18 18 17 17 17 17 17 17 17 17 17
21 21 21 21 21 21 20 20 19 19 19 19 19 18 18 18 18 18 18 18 18 18 18 17 17 17 17 17 17 17 17 17
22 21 21 21 21 21 20 20 19 19 19 19 19 19 18 18 18 17 17 17 17 17 17 16 16 16 17 17 17 17 17 17
22 22 22 21 21 21 20 20 20 19 19 20 19 19 18 18 17 17 17 16 16 16 16 16 15 15 15 16 16 16 16 16
22 22 22 21 21 21 20 20 20 20 20 19 18 18 18 17 17 17 16 16 16 16 15 15 15 15 14 15 15 15 15 15
21 21 21 20 20 20 20 20 20 19 19 19 18 18 17 17 16 16 15 15 15 15 14 14 14 13 13 13 13 14 14 15
20 20 21 19 20 19 20 20 19 19 18 17 17 16 16 15 15 14 14 14 14 13 13 13 12 12 12 11 12 13 13 13
19 19 19 19 18 18 18 19 18 17 16 15 15 14 14 14 13 13 13 13 13 12 12 12 11 11 11 11 11 12 12 12
17 17 18 18 18 18 18 16 15 15 15 14 14 13 13 12 12 11 11 11 10 10 10 10 10 10 9 9 9 11 11 11
18 18 18 18 17 16 16 16 15 14 13 13 12 12 12 11 10 10 10 9 10 10 9 9 9 8 7 8 7 9 8 9
18 18 18 18 18 17 17 17 15 13 12 12 11 11 11 10 9 8 8 8 8 8 8 7 7 7 6 5 6 6 5 8
17 17 17 17 16 16 15 14 13 11 11 11 11 10 10 9 8 7 7 7 7 7 6 6 5 4 5 5 4 4 4 4
17 17 17 16 15 15 14 13 12 11 11 11 10 9 8 8 7 7 6 6 5 5 5 4 3 3 3 3 3 3 3 2
17 16 16 16 15 14 14 12 11 11 10 10 9 8 7 7 7 6 5 5 4 4 3 3 3 3 3 2 2 2 2 2
16 15 14 13 13 13 12 11 11 10 10 9 9 8 7 7 6 5 5 5 5 5 4 3 3 3 2 2 2 2 2 1
15 14 13 13 12 11 11 11 10 10 9 8 8 7 6 6 6 5 5 4 4 4 3 3 3 2 2 2 2 1 1 -0

GFSFLT2_925_temp_027.txt.gz
Temp
20 20 20 19 19 19 19 19 19 19 19 19 18 18 18 18 18 18 18 18 18 17 17 17 17 17 17 17 17 17 17 17
20 20 20 19 19 20 20 20 19 19 18 18 18 18 18 18 18 18 17 18 18 18 17 17 17 17 17 17 17 17 17 17
20 20 20 20 20 20 19 19 19 18 18 18 18 18 18 18 18 18 17 17 18 17 17 17 17 17 17 17 17 17 17 17
20 20 20 20 20 20 19 19 19 18 18 18 18 18 18 18 18 17 17 17 17 17 17 17 17 17 17 17 17 17 17 17
20 20 20 20 20 20 19 19 19 19 18 18 18 18 18 18 17 17 17 17 17 17 17 16 16 16 16 16 16 16 17 17
21 20 20 20 20 20 20 20 19 19 19 18 18 18 18 18 17 17 17 17 16 16 16 16 16 16 16 15 15 15 15 16
21 20 20 20 20 20 20 20 19 19 19 18 18 18 18 18 17 17 17 17 16 16 16 16 16 15 15 15 15 15 15 15
21 20 20 20 20 21 20 20 19 19 19 18 18 18 18 17 17 17 16 16 15 15 15 15 14 14 14 14 14 14 14 14
20 20 20 20 20 20 19 19 19 19 18 18 18 17 16 16 15 15 15 14 14 14 14 14 14 13 13 13 13 13 13 13
19 19 19 19 19 19 18 18 18 18 17 17 16 15 15 15 14 14 13 13 13 13 13 13 12 12 12 12 12 12 12 12
18 18 17 17 17 17 17 18 17 17 16 15 15 14 14 14 13 12 12 12 12 12 11 11 11 11 11 11 11 11 11 10
17 16 16 16 17 17 17 16 15 15 15 14 14 14 13 13 13 12 11 11 11 11 10 10 10 8 9 9 9 10 9 9
17 17 17 17 17 16 16 14 14 14 14 13 13 13 13 12 11 11 10 9 8 8 8 8 8 8 8 7 8 9 8 8
18 18 18 17 17 16 15 14 14 14 13 13 12 12 11 10 10 10 9 8 8 7 7 7 7 6 5 6 4 7 7 6
18 18 18 17 17 17 15 14 13 12 11 11 10 10 10 10 9 8 8 7 7 6 6 5 5 5 4 4 3 3 4 6
17 17 17 17 17 17 17 16 13 11 10 10 10 10 10 9 8 8 7 6 6 5 5 5 4 3 4 4 3 3 3 3
16 16 16 15 15 15 15 14 13 11 11 10 10 9 9 8 8 7 6 5 5 5 4 4 3 3 2 2 2 2 2 2
15 15 15 15 15 14 13 13 11 11 10 11 11 10 9 8 7 7 6 5 5 4 4 3 3 3 2 2 1 1 2 2
15 15 15 14 13 13 12 11 11 11 11 11 10 9 9 8 7 7 6 5 4 4 4 3 3 3 3 2 2 1 1 0
14 14 13 13 12 12 11 11 11 11 10 10 9 9 8 7 7 6 5 5 4 4 3 3 3 3 2 2 2 1 1 0

GFSFLT2_925_temp_033.txt.gz
Temp
18 18 18 18 18 18 18 18 18 18 18 18 18 17 17 17 17 17 17 17 17 17 17 17 17 17 17 17 17 17 17 16
18 18 17 18 18 18 18 18 18 18 18 18 17 17 17 17 17 17 17 17 17 17 17 17 17 17 17 17 17 16 16 16
17 18 18 18 18 18 18 18 18 18 18 18 18 17 17 17 17 17 17 17 17 17 17 17 16 16 16 16 16 16 16 15
18 18 18 18 18 18 18 18 18 18 18 18 17 17 17 17 17 17 17 17 16 16 16 16 16 15 15 16 15 16 15 15
18 18 18 18 18 18 18 18 17 18 17 17 17 17 17 17 16 16 16 16 16 16 15 15 15 15 14 14 15 14 13 14
18 18 18 18 18 18 18 18 18 17 17 17 16 16 16 16 16 15 15 15 15 15 15 14 14 14 14 14 14 13 13 13
18 18 18 17 17 17 17 17 17 17 16 16 16 16 16 15 15 15 14 14 14 14 14 14 13 13 13 13 13 12 13 12
18 18 17 17 17 17 17 17 17 16 15 15 16 16 15 14 14 14 14 14 14 13 13 12 12 12 12 12 12 11 10 10
17 17 16 16 16 16 15 15 15 15 14 14 15 15 14 14 14 14 13 13 12 12 12 12 10 10 10 10 9 9 9 9
16 16 16 16 15 15 14 15 14 14 14 15 14 14 14 14 14 13 12 12 12 11 10 10 9 9 9 9 9 9 8 8
15 15 15 15 16 15 14 14 14 14 14 14 14 14 13 13 12 11 11 11 10 9 8 8 8 8 9 9 9 9 8 8
14 15 15 17 15 14 13 14 14 14 14 13 13 13 12 12 11 11 11 10 8 8 7 7 6 6 7 8 8 8 7 7
15 16 15 14 13 13 13 13 13 13 13 13 12 12 11 11 11 10 10 9 8 7 7 6 7 5 7 7 8 7 7 6
14 16 16 14 13 14 14 14 13 12 12 11 11 11 11 11 10 10 9 8 8 7 6 6 6 5 5 7 9 8 7 6
14 15 15 15 15 15 14 13 11 10 10 11 11 11 11 11 10 9 9 8 7 7 5 5 6 5 4 5 7 7 5 5
15 15 15 15 14 14 15 13 12 11 11 11 11 11 10 10 9 9 9 8 7 6 5 5 4 5 4 4 3 4 4 5
15 15 14 14 15 14 14 13 12 11 11 11 11 11 10 10 9 9 8 7 6 5 4 3 3 3 4 3 3 3 3 3
15 14 15 14 14 14 13 13 12 12 12 11 11 10 10 9 9 8 7 6 4 4 3 3 3 3 3 3 3 3 3 2
14 15 14 14 13 13 12 12 12 11 11 10 9 9 9 8 7 6 5 4 4 4 3 3 3 2 2 2 2 2 2 1
14 14 13 13 12 12 12 12 11 10 9 9 8 8 7 7 7 6 5 5 5 4 3 2 2 2 2 2 1 1 1 1